Mildenhall RAF, United Kingdom

7:01 PM GMT on February 23, 2018 (GMT +0000)
Mildenhall Air Base

Weather History for EGUN - October, 2012

Change the Weather History Date:

Saturday, October 13, 2012

  Actual Average Record
Temperature  
Mean Temperature 46 °F -  
Max Temperature 53 °F - - ()
Min Temperature 39 °F - - ()
Degree Days  
Heating Degree Days 19    
Moisture  
Dew Point 45 °F    
Average Humidity 90    
Maximum Humidity 100    
Minimum Humidity 77    
Precipitation  
Precipitation 0.00 in - - ()
Sea Level Pressure  
Sea Level Pressure 29.63 in    
Wind  
Wind Speed 6 mph ()    
Max Wind Speed 12 mph    
Max Gust Speed -    
Visibility 6.2 miles    
Events Rain    
T = Trace of Precipitation, MM = Missing Value Source: Averaged Metar Reports

Daily Weather History Graph

Daily Weather History Graph

Search for Another Location

Airport or City:

Trip Planner

Search our weather history database for the weather conditions in past years. The results will help you decide how hot, cold, wet, or windy it might be!

Date:

Astronomy

Oct. 13, 2012 Rise Set
Actual Time 7:20 AM BST 6:07 PM BST
Civil Twilight 6:46 AM BST 6:41 PM BST
Nautical Twilight 6:06 AM BST 7:20 PM BST
Astronomical Twilight 5:27 AM BST 8:00 PM BST
Moon 4:39 AM BST (10/13) 4:51 PM BST (10/13)
Length of Visible Light 11h 55m
Length of Day
10h 46m
Waning Crescent, 6% of the Moon is Illuminated
Oct 13
Waning Crescent
Oct 15
New
Oct 22
First Quarter
Oct 29
Full
Nov 7
Last Quarter

Hourly Weather History & Observations

Time (BST) Temp. Windchill Dew Point Humidity Pressure Visibility Wind Dir Wind Speed Gust Speed Precip Events Conditions
12:58 AM 42.4 °F 38.1 °F 41.2 °F 95% 29.74 in 6.2 mi South 6.9 mph - N/A   Clear
1:58 AM 42.4 °F 38.8 °F 41.4 °F 96% 29.73 in 6.2 mi South 5.8 mph - N/A   Scattered Clouds
2:58 AM 43.3 °F 39.9 °F 42.6 °F 97% 29.72 in 6.2 mi SSE 5.8 mph - N/A   Overcast
3:58 AM 44.8 °F 41.0 °F 43.7 °F 96% 29.70 in 6.2 mi South 6.9 mph - N/A   Overcast
4:58 AM 43.9 °F 41.3 °F 43.0 °F 97% 29.69 in 6.2 mi SSE 4.6 mph - N/A   Scattered Clouds
5:58 AM 41.9 °F 38.2 °F 41.9 °F 100% 29.67 in 6.2 mi SSE 5.8 mph - N/A   Clear
6:58 AM 40.5 °F 35.8 °F 40.5 °F 100% 29.67 in 6.2 mi SSE 6.9 mph - N/A   Partly Cloudy
7:58 AM 39.4 °F 37.2 °F 39.4 °F 100% 29.66 in 6.2 mi SSE 3.5 mph - N/A   Clear
8:58 AM 40.5 °F 37.3 °F 40.5 °F 100% 29.67 in 6.2 mi South 4.6 mph - N/A   Clear
9:58 AM 45.7 °F 43.4 °F 45.7 °F 100% 29.67 in 6.2 mi SSW 4.6 mph - N/A   Clear
10:58 AM 48.4 °F - 46.4 °F 93% 29.66 in 6.2 mi WSW 4.6 mph - N/A   Partly Cloudy
11:29 AM 50.0 °F - 46.4 °F 87% 29.64 in 6.2 mi WSW 3.5 mph - N/A   Mostly Cloudy
11:58 AM 51.6 °F - 47.1 °F 85% 29.64 in 6.2 mi NW 4.6 mph - N/A   Overcast
12:03 PM 51.8 °F - 46.4 °F 82% 29.63 in 6.2 mi NW 4.6 mph - N/A   Overcast
12:08 PM 51.8 °F - 46.4 °F 82% 29.63 in 6.2 mi WNW 4.6 mph - N/A   Overcast
12:26 PM 51.8 °F - 46.4 °F 82% 29.63 in 6.2 mi WNW 5.8 mph - N/A   Overcast
12:31 PM 51.8 °F - 46.4 °F 82% 29.63 in 6.2 mi Variable 3.5 mph - N/A   Mostly Cloudy
12:42 PM 51.8 °F - 46.4 °F 82% 29.62 in 6.2 mi Variable 3.5 mph - N/A   Scattered Clouds
12:58 PM 52.9 °F - 47.1 °F 81% 29.63 in 6.2 mi West 5.8 mph - N/A   Scattered Clouds
1:12 PM 51.8 °F - 48.2 °F 88% 29.62 in 6.2 mi WNW 8.1 mph - N/A   Mostly Cloudy
1:13 PM 51.8 °F - 48.2 °F 88% 29.62 in 6.2 mi WNW 8.1 mph - N/A   Mostly Cloudy
1:15 PM 51.8 °F - 48.2 °F 88% 29.62 in 6.2 mi WNW 8.1 mph - N/A   Mostly Cloudy
1:19 PM 51.8 °F - 46.4 °F 82% 29.62 in 6.2 mi WNW 5.8 mph - N/A   Overcast
1:22 PM 51.8 °F - 46.4 °F 82% 29.62 in 6.2 mi West 5.8 mph - N/A   Overcast
1:58 PM 51.6 °F - 46.9 °F 84% 29.63 in 6.2 mi WNW 6.9 mph - N/A   Overcast
2:30 PM 53.6 °F - 46.4 °F 77% 29.61 in 6.2 mi NW 8.1 mph - N/A Rain Light Rain
2:39 PM 53.6 °F - 46.4 °F 77% 29.61 in 6.2 mi WNW 5.8 mph - N/A   Overcast
2:58 PM 52.5 °F - 46.6 °F 80% 29.62 in 6.2 mi NW 9.2 mph - 0.00 in   Overcast
3:52 PM 51.8 °F - 46.4 °F 82% 29.60 in 6.2 mi NNW 9.2 mph - N/A   Mostly Cloudy
3:54 PM 51.8 °F - 46.4 °F 82% 29.60 in 6.2 mi NW 9.2 mph - N/A   Mostly Cloudy
3:58 PM 52.3 °F - 46.6 °F 81% 29.61 in 6.2 mi NNW 11.5 mph - N/A   Mostly Cloudy
4:02 PM 51.8 °F - 46.4 °F 82% 29.60 in 6.2 mi NW 11.5 mph - N/A   Mostly Cloudy
4:15 PM 53.6 °F - 46.4 °F 77% 29.60 in 6.2 mi NNW 11.5 mph - N/A   Overcast
4:17 PM 51.8 °F - 46.4 °F 82% 29.60 in 6.2 mi NW 9.2 mph - N/A   Overcast
4:40 PM 50.0 °F - 44.6 °F 82% 29.60 in 6.2 mi NNW 8.1 mph - N/A Rain Light Rain
4:55 PM 50.0 °F - 44.6 °F 82% 29.59 in 6.2 mi NNW 6.9 mph - N/A   Mostly Cloudy
4:58 PM 49.8 °F - 44.8 °F 83% 29.60 in 6.2 mi NNW 9.2 mph - 0.00 in   Mostly Cloudy
5:58 PM 46.6 °F - 44.1 °F 91% 29.61 in 6.2 mi NW 4.6 mph - 0.00 in   Clear
6:58 PM 43.9 °F 42.3 °F 42.4 °F 95% 29.62 in 6.2 mi SW 3.5 mph - N/A   Partly Cloudy
7:52 PM 42.8 °F 40.1 °F 42.8 °F 100% 29.62 in 6.2 mi SW 4.6 mph - N/A   Overcast
7:58 PM 43.0 °F 41.3 °F 43.0 °F 100% 29.63 in 6.2 mi WSW 3.5 mph - N/A   Overcast
8:58 PM 44.8 °F 42.4 °F 44.8 °F 100% 29.63 in 6.2 mi West 4.6 mph - N/A   Overcast
9:44 PM 44.6 °F 40.2 °F 44.6 °F 100% 29.61 in 6.2 mi West 8.1 mph - N/A   Overcast
9:52 PM 44.6 °F 40.7 °F 44.6 °F 100% 29.61 in 6.2 mi West 6.9 mph - N/A   Mostly Cloudy
9:58 PM 44.6 °F 40.7 °F 44.6 °F 100% 29.63 in 6.2 mi WNW 6.9 mph - N/A   Overcast
10:01 PM 44.6 °F 40.7 °F 44.6 °F 100% 29.61 in 6.2 mi NW 6.9 mph - N/A   Overcast
10:27 PM 44.6 °F 40.2 °F 44.6 °F 100% 29.61 in 6.2 mi West 8.1 mph - N/A   Overcast
10:51 PM 44.6 °F 40.7 °F 44.6 °F 100% 29.61 in 6.2 mi West 6.9 mph - N/A   Overcast
10:58 PM 45.1 °F 41.4 °F 45.1 °F 100% 29.62 in 6.2 mi West 6.9 mph - 0.00 in   Overcast
11:58 PM 44.4 °F 40.5 °F 44.4 °F 100% 29.61 in 6.2 mi West 6.9 mph - N/A   Overcast